Flag for U.S.A. Weather past 2 weeks in Denver, Colorado, U.S.A.

Now
44 °F

Mostly cloudy.


Feels Like: 38 °F
Forecast: 38 / 62 °F
Wind: 14 mph from North

Location: Buckley Air Force Base

Current Time: Oct 1, 2014 at 6:21:19 PM

Latest Report: Oct 1, 2014 at 5:58 PM


Visibility: 10 mi

Pressure: 29.92 "Hg

Humidity: 100%

Dew point: 44 °F

Location of DenverLocation

Historic Weather in Denver — Graph

°F

Denver temperature yesterday

Maximum temperature yesterday: 66 °F (at 12:58 PM)
Minimum temperature yesterday: 44 °F (at 6:58 AM)
Average temperature yesterday: 55 °F

Past Weeks' High & Low Weather Summary

 TemperatureHumidityPressure
High88 °F (Sep 17, 3:58 PM)100% (Sep 21, 10:58 PM)30.31 "Hg (Sep 21, 10:58 PM)
Low44 °F (Sep 30, 6:58 AM)14% (Sep 17, 2:58 PM)29.64 "Hg (Oct 1, 2:58 PM)
Average65 °F51%29.91 "Hg
* Reported Sep 16 4:58 PM — Oct 1 4:58 PM, Denver, Weather by CustomWeather, © 2014

Note: Actual official high and low records may vary slightly from our data, if they occured in-between our weather recording intervals... More about our weather records

Advertising

Denver weather history for previous 24 hours

 ConditionsComfort  
Time TempWeatherWind HumidityBarometerVisibility
4:58 PM
Oct 1
46 °FLow clouds.15 mph99%29.86 "Hg10 mi
3:58 PM50 °FThundershowers. Partly sunny.10 mph90%29.79 "Hg10 mi
2:58 PM65 °FThundershowers. Partly sunny.3 mph31%29.64 "Hg10 mi
1:58 PM66 °FScattered showers. Partly sunny.9 mph30%29.66 "Hg10 mi
12:58 PM64 °FBroken clouds.5 mph35%29.70 "Hg10 mi
11:58 AM62 °FBroken clouds.2 mph35%29.72 "Hg10 mi
10:58 AM60 °FBroken clouds.6 mph42%29.75 "Hg10 mi
9:58 AM57 °FPartly sunny.5 mph42%29.78 "Hg10 mi
8:58 AM52 °FBroken clouds.6 mph57%29.78 "Hg10 mi
7:58 AM48 °FBroken clouds.8 mph63%29.80 "Hg10 mi
6:58 AM44 °FPartly cloudy.7 mph71%29.79 "Hg10 mi
5:58 AM45 °FPartly cloudy.7 mph68%29.77 "Hg10 mi
4:58 AM45 °FPassing clouds.7 mph66%29.75 "Hg10 mi
3:58 AM46 °FPassing clouds.9 mph68%29.75 "Hg10 mi
2:58 AM46 °FPassing clouds.7 mph69%29.76 "Hg10 mi
1:58 AM46 °FPassing clouds.5 mph73%29.76 "Hg10 mi
12:58 AM49 °FPassing clouds.6 mph60%29.74 "Hg10 mi
11:58 PM
Sep 30
52 °FPassing clouds.1 mph51%29.72 "Hg10 mi
10:58 PM54 °FPartly cloudy.2 mph51%29.75 "Hg10 mi
9:58 PM54 °FPassing clouds.6 mph57%29.75 "Hg10 mi
8:58 PM58 °FPartly cloudy.3 mph39%29.75 "Hg10 mi
7:58 PM59 °FPartly cloudy.16 mph38%29.76 "Hg10 mi
6:58 PM58 °FPartly sunny.2 mph52%29.75 "Hg10 mi
Weather by CustomWeather, © 2014

See weather overviewHow to use our weather pages